Location: Albany
(35.0000°S, 118.0000°E)
Time: 20:37:54
(UTC-05:00)

Cosmos 1933 - Visible Passes

Search period start: 15 December 2017 00:00
Search period end: 25 December 2017 00:00
Orbit: 548 x 565 km, 82.5° (Epoch: 14 December)

Date Brightness Start Highest point End Pass type
(mag) Time Alt. Az. Time Alt. Az. Time Alt. Az.
15 Dec 3.6 13:15:20 62° SW 13:15:20 62° SW 13:19:05 10° S visible
16 Dec 3.9 13:13:14 51° SW 13:13:14 51° SW 13:16:45 10° S visible
17 Dec 4.2 13:11:07 42° SW 13:11:07 42° SW 13:14:25 10° S visible
18 Dec 6.3 11:33:08 11° ESE 11:33:08 11° ESE 11:33:32 10° ESE visible
18 Dec 4.5 13:09:00 35° SW 13:09:00 35° SW 13:12:02 10° S visible
19 Dec 6.2 11:30:59 12° ESE 11:30:59 12° ESE 11:31:48 10° SE visible
19 Dec 4.7 13:06:51 30° SW 13:06:51 30° SW 13:09:39 10° SSW visible
20 Dec 6.1 11:28:50 14° ESE 11:28:50 14° ESE 11:29:53 10° SE visible
20 Dec 5.0 13:04:41 26° SW 13:04:41 26° SW 13:07:15 10° SSW visible
21 Dec 6.0 11:26:39 15° ESE 11:26:39 15° ESE 11:27:53 10° SE visible
21 Dec 5.2 13:02:30 22° SW 13:02:30 22° SW 13:04:48 10° SSW visible
22 Dec 5.9 11:24:28 16° SE 11:24:28 16° SE 11:25:50 10° SE visible
22 Dec 5.4 13:00:19 19° SW 13:00:19 19° SW 13:02:20 10° SSW visible
23 Dec 5.8 11:22:15 18° SE 11:22:15 18° SE 11:23:44 10° SE visible
23 Dec 5.6 12:58:07 17° SW 12:58:07 17° SW 12:59:49 10° SSW visible
24 Dec 5.8 11:20:02 19° SE 11:20:02 19° SE 11:21:35 10° SSE visible
24 Dec 5.8 12:55:53 15° SW 12:55:53 15° SW 12:57:15 10° SW visible
